| time (UTC) | temp C | wind direction | speed KPH | gust KPH | rain 1hr cm | rain 24hr cm | rain mn cm | humidity % | barometer mb |
| 20260505003004 | 21 | 247 | 0.0 | 3.2 | 0.00 | 0.00 | 0.00 | 56 | 1003.6 |
| 20260505001504 | 22 | 236 | 1.6 | 4.8 | 0.00 | 0.00 | 0.00 | 55 | 1003.6 |
| 20260505000004 | 22 | 245 | 0.0 | 8.0 | 0.00 | 0.00 | 0.00 | 53 | 1003.7 |
| 20260504233003 | 21 | 206 | 0.0 | 1.6 | 0.00 | 0.00 | 0.00 | 68 | 1004.0 |
| 20260504231504 | 21 | 230 | 0.0 | 0.0 | 0.00 | 0.00 | 0.00 | 64 | 1004.0 |
| 20260504230003 | 21 | 230 | 0.0 | 0.0 | 0.00 | 0.00 | 0.00 | 62 | 1004.3 |
| 20260504224504 | 22 | 230 | 0.0 | 4.8 | 0.00 | 0.00 | 0.00 | 61 | 1004.6 |
| 20260504223024 | 22 | 253 | 0.0 | 0.0 | 0.00 | 0.00 | 0.00 | 59 | 1004.6 |
| 20260504220004 | 22 | 238 | 0.0 | 4.8 | 0.00 | 0.00 | 0.00 | 59 | 1004.6 |
| 20260504214504 | 22 | 279 | 0.0 | 4.8 | 0.00 | 0.00 | 0.00 | 59 | 1005.1 |
| 20260504213004 | 22 | 247 | 1.6 | 8.0 | 0.00 | 0.00 | 0.00 | 59 | 1005.2 |
| 20260504211504 | 22 | 229 | 1.6 | 4.8 | 0.00 | 0.00 | 0.00 | 60 | 1005.4 |
| 20260504210004 | 21 | 244 | 0.0 | 4.8 | 0.00 | 0.00 | 0.00 | 62 | 1005.6 |
| 20260504204504 | 21 | 236 | 0.0 | 4.8 | 0.00 | 0.00 | 0.00 | 65 | 1005.8 |
| 20260504203004 | 21 | 59 | 0.0 | 3.2 | 0.00 | 0.00 | 0.00 | 70 | 1006.3 |
| 20260504201503 | 19 | 25 | 0.0 | 0.0 | 0.00 | 0.00 | 0.00 | 76 | 1006.4 |
| 20260504200004 | 18 | 26 | 0.0 | 0.0 | 0.00 | 0.00 | 0.00 | 79 | 1006.3 |
| 20260504194504 | 18 | 26 | 0.0 | 1.6 | 0.00 | 0.00 | 0.00 | 79 | 1006.6 |
| 20260504193004 | 18 | 310 | 0.0 | 0.0 | 0.00 | 0.00 | 0.00 | 76 | 1007.1 |
| 20260504191503 | 19 | 207 | 0.0 | 12.9 | 0.00 | 0.00 | 0.00 | 70 | 1006.9 |
| 20260504184504 | 20 | 266 | 0.0 | 11.3 | 0.00 | 0.00 | 0.00 | 65 | 1007.3 |
| 20260504180004 | 21 | 199 | 1.6 | 8.0 | 0.00 | 0.00 | 0.00 | 63 | 1006.4 |
| 20260504174503 | 20 | 245 | 1.6 | 4.8 | 0.00 | 0.00 | 0.00 | 66 | 1006.6 |
| 20260504173004 | 20 | 263 | 0.0 | 4.8 | 0.00 | 0.00 | 0.00 | 64 | 1006.7 |
| 20260504171504 | 20 | 258 | 0.0 | 3.2 | 0.00 | 0.00 | 0.00 | 68 | 1006.9 |
| 20260504081504 | 10 | 244 | 0.0 | 0.0 | 0.00 | 0.00 | 0.00 | 72 | 1009.6 |
| 20260504050004 | 11 | 82 | 0.0 | 0.0 | 0.00 | 0.00 | 0.00 | 70 | 1011.3 |
| 20260504044504 | 11 | 82 | 0.0 | 0.0 | 0.00 | 0.00 | 0.00 | 68 | 1011.5 |
| 20260504043004 | 11 | 87 | 0.0 | 0.0 | 0.00 | 0.00 | 0.00 | 67 | 1011.6 |
| 20260504034504 | 12 | 105 | 0.0 | 0.0 | 0.00 | 0.00 | 0.00 | 66 | 1012.1 |
| 20260504033003 | 11 | 106 | 0.0 | 0.0 | 0.00 | 0.00 | 0.00 | 68 | 1012.1 |
| 20260504031504 | 11 | 205 | 0.0 | 0.0 | 0.00 | 0.00 | 0.00 | 68 | 1012.2 |
| 20260504030003 | 11 | 205 | 0.0 | 0.0 | 0.00 | 0.00 | 0.00 | 71 | 1012.3 |
| 20260504024504 | 11 | 205 | 0.0 | 0.0 | 0.00 | 0.00 | 0.00 | 68 | 1012.5 |
| 20260504023004 | 11 | 205 | 0.0 | 0.0 | 0.00 | 0.00 | 0.00 | 68 | 1012.5 |
| 20260504021504 | 11 | 205 | 0.0 | 0.0 | 0.00 | 0.00 | 0.00 | 74 | 1012.6 |
| 20260504014504 | 11 | 205 | 0.0 | 0.0 | 0.00 | 0.00 | 0.00 | 76 | 1012.4 |